Orbital Elements at Epoch 2459000.5 (2020-May-31.0) TDB
Reference: JPL 17 (heliocentric ecliptic J2000)
Element | Value | Uncertainty (1-sigma) | Units |
e | .2743473156690359 | 5.974e-08 | |
a | 2.644256384146884 | 1.3576e-08 | au |
q | 1.918811743215475 | 1.6295e-07 | au |
i | 3.698817433407486 | 4.7758e-06 | deg |
node | 298.4214388500156 | 8.3919e-05 | deg |
peri | 56.76380472188705 | 8.4582e-05 | deg |
M | 329.0071949778655 | 7.196e-06 | deg |
tp | 2459135.711039777965 (2020-Oct-13.21103978) | 3.1332e-05 | TDB |
period | 1570.557240149892 4.30 | 1.2095e-05 3.311e-08 | d yr |
n | .2292180067029216 | 1.7653e-09 | deg/d |
Q | 3.369701025078293 | 1.7301e-08 | au |
|
| | Orbit Determination Parameters
Additional Information
|